Location: Banff
(51.1667°N, 115.5667°W)
Time: 14:25:36
(UTC+00:00)

Tiros 1 - Pass Details

Date: 31 July 2021
Orbit: 630 x 663 km, 48.4° (Epoch: 27 September)

Event Time Altitude Azimuth Distance (km) Brightness Sun altitude
Rises 08:07:45 0° 279° (W) 2,956 10.6 -20.5°
Reaches altitude 10° 08:10:37 10° 262° (W) 2,036 9.6 -20.5°
Enters shadow 08:11:00 12° 258° (WSW) 1,934 9.4 -20.5°
